Weather in Gushcha

Ukraine / Volyn Oblast     51°16′43″N   23°45′05″E
temp.,
°C
wind,
m/s
gust,
m/s
humid.,
%
clouds,
%
prec.,
mm/h
press.,
hPa
HPBL,
m
26 january, tue
tue2623:00−1nw81397100 1.3 997774
02:000nw91597100 3.1 997965
05:00−1wnw101695100 2.3 9991006
08:00−1wnw101695100 4.5 1001872
11:00−1wnw101691100 0.6 1002978
14:000w101588100 0.8 10041078
17:00−1w91489100 0.1 1006992
20:00−1w81391100 0.2 1007887
27 january, wed
wed2723:00−1w71392100 0.1 1009811
02:00−2w61292100 0.1 1008721
05:00−2w61192100 0.1 1009721
08:00−3wsw51094100 0.1 1009401
11:00−1wnw699193 0.1 1010722
14:000wnw579197 0.1 1009720
17:00−1wnw4897100 0.4 1009383
20:00−4wnw369692 0.4 1010112
28 january, thu
thu2823:00−3nw3996100 0.1 1010307
02:00−4nw4895100 0.2 1010246
05:00−4nw4796100 0.1 1010245
08:00−5nw3697100 0.1 1009167
11:00−4wnw349692 0.0 1009232
14:00−2w349584 0.1 1007369
17:00−4sw229289 0.0 100542
20:00−6ssw369461 0.0 1003108
29 january, fri
fri2923:00−3ssw489499 0.2 1001266
02:00−1wsw5109799 0.9 1000470
05:00−2wnw41093100 0.6 999464
08:00−4w599097 0.6 1000643
11:00−4w6119095 0.0 1000705
14:00−2w7108598 0.1 1000905
17:00−4w4108791 0.0 1000275
20:00−6w388896 0.0 1001142
30 january, sat
sat3023:00−7w3490100 0.0 100154
02:00−8w339086 0.0 100136
05:00−7w349097 0.0 100178
08:00−8wsw239182 0.0 100128
11:00−5wsw3490100 0.0 1000181
14:00−3wsw2486100 0.0 999310
17:00−4sw1189100 0.0 99821
20:00−4ssw2293100 0.0 99842